Aérodrome :
LOGIN :

S'inscrire | Disclaimer

   EN    FR    IT 

 










Légende :    VFR   VFR Marginal   IFR   IFR Intensif   IFR Très Intensif
Visi : 
Plafond : 
>= 8 km
>= 3000ft
5 à 8 km
1000 à 3000 ft
1500m à 5 km
500 à 1000 ft
800 à 1500m
200 à 500 ft
< 800m
< 200 ft
Symboles :   Orages  Brouillard  Fortes neiges  Fortes précipitations  Vent > 20 kt
SIGMETs :   Divers  Orages  Givrage  Turbulence  Onde Orograph.  Cendres Volcan.






- Altitude de l'aérodrome : 13 ft
- Code IATA : LYX


EGMD - Lydd

DERNIER METAR :
  • 090950Z 27009KT CAVOK 06/03 Q1004

METARs EXPIRÉS :
  • 090920Z 26009KT CAVOK 05/03 Q1004
  • 090850Z 25011KT CAVOK 05/02 Q1004
  • 090820Z 24010KT CAVOK 05/02 Q1004
  • 090750Z AUTO 24008KT 9999 NCD 05/02 Q1003
  • 090720Z AUTO 26010KT 9999 FEW028/// 05/02 Q1003

TAF TAF EGMD
Valide du 09 à 09h jusqu'au 09 à 18h UTC


090803Z 0909/0918 27010KT 9999 FEW030
ATIS : +44 1797 322 422



MET'MAP, la Météo Aéronautique d'un coup d'oeil ! - Copyright ORBIFLY Décembre 2007 - Disclaimer

ORBIFLY MET'MAP TEAM :

Programmation & Développement : Alexandra Zaïnal
Sur une idée originale de : Baudouin d'Aumeries
Assistance à la programmation : Marc-Olivier Méhu
Soutien technique & logistique : Manuel Goepfert

Contact : metmap@orbifly.com




SOURCES & CREDITS :

   NOAA